Flag for Switzerland Weather past 2 weeks in Worb, Bern, Switzerland

Now
43 °F

Broken clouds.


Feels Like: 41 °F
Forecast: 22 / 45 °F
Wind: 3 mph from North

Location: Bern / Belp

Current Time: Feb 28, 2015 at 3:44:51 PM

Latest Report: Feb 28, 2015 at 3:20 PM


Visibility: N/A

Pressure: 30.07 "Hg

Humidity: 61%

Dew point: 30 °F

Location of WorbLocation

Historic Weather in Worb — Graph

°F

Worb temperature yesterday

Maximum temperature yesterday: 39 °F (at 12:50 PM)
Minimum temperature yesterday: 34 °F (at 8:20 AM)
Average temperature yesterday: 36 °F

Past Weeks' High & Low Weather Summary

 TemperatureHumidityPressure
High52 °F (Feb 20, 2:20 PM)100% (Feb 14, 7:50 AM)30.60 "Hg (Feb 14, 7:50 AM)
Low21 °F (Feb 20, 7:20 AM)24% (Feb 20, 3:50 PM)29.56 "Hg (Feb 21, 9:20 AM)
Average34 °F85%30.01 "Hg
* Reported Feb 13 2:20 PM — Feb 28 2:20 PM, Worb, Weather by CustomWeather, © 2015

Note: Actual official high and low records may vary slightly from our data, if they occured in-between our weather recording intervals... More about our weather records

Advertising

Worb weather history for previous 24 hours

 ConditionsComfort  
Time TempWeatherWind HumidityBarometerVisibility
2:20 PM
Sat, Feb 28
41 °FBroken clouds.3 mph66%30.07 "HgN/A
1:50 PM41 °FPartly sunny.5 mph66%30.07 "HgN/A
1:20 PM41 °FBroken clouds.3 mph70%30.09 "HgN/A
12:50 PM41 °FBroken clouds.3 mph70%30.09 "HgN/A
12:20 PM39 °FBroken clouds.5 mph81%30.09 "HgN/A
11:50 AM39 °FPartly sunny.3 mph75%30.12 "HgN/A
11:20 AM37 °FBroken clouds.5 mph81%30.12 "HgN/A
10:50 AM37 °FBroken clouds.5 mph87%30.12 "HgN/A
10:20 AM37 °FBroken clouds.5 mph81%30.12 "HgN/A
9:50 AM37 °FBroken clouds.3 mph81%30.12 "HgN/A
9:20 AM36 °FBroken clouds.3 mph87%30.12 "HgN/A
8:50 AM36 °FBroken clouds.2 mph87%30.12 "HgN/A
8:20 AM36 °FBroken clouds.2 mph87%30.12 "HgN/A
7:50 AM34 °FPartly sunny.2 mph93%30.12 "HgN/A
7:20 AM34 °FPartly sunny.3 mph93%30.12 "Hg6 mi
6:50 AM34 °FPassing clouds.2 mph93%30.12 "Hg4 mi
6:20 AM34 °FPassing clouds.2 mph93%30.12 "Hg4 mi
5:50 AM34 °FPartly cloudy.2 mph100%30.12 "Hg5 mi
5:20 AM34 °FMostly cloudy.1 mph100%30.09 "Hg4 mi
4:20 AM34 °FLight snow. Mostly cloudy.2 mph93%30.09 "Hg2 mi
3:50 AM32 °FLight snow. Passing clouds.2 mph100%30.09 "Hg1 mi
3:20 AM32 °FSnow flurries. Partly cloudy.1 mph100%30.09 "Hg2 mi
2:50 AM32 °FIce fog.1 mph100%30.12 "Hg2 mi
2:20 AM32 °FLight snow. Low clouds.1 mph100%30.12 "Hg2 mi
1:50 AM32 °FSnow. Partly cloudy.1 mph100%30.12 "Hg1 mi
1:20 AM34 °FLight snow. Partly cloudy.2 mph93%30.15 "Hg1 mi
12:50 AM34 °FLight snow. Partly cloudy.2 mph100%30.15 "Hg4 mi
12:20 AM34 °FLight snow. Partly cloudy.No wind93%30.15 "Hg5 mi
11:50 PM
Fri, Feb 27
34 °FLight snow. Partly cloudy.1 mph93%30.15 "HgN/A
11:20 PM34 °FLight snow. Overcast.2 mph93%30.15 "HgN/A
10:50 PM36 °FLight snow. Partly cloudy.2 mph87%30.12 "HgN/A
10:20 PM36 °FLight rain. Partly cloudy.2 mph93%30.12 "HgN/A
9:50 PM36 °FLight rain. Partly cloudy.2 mph93%30.12 "HgN/A
9:20 PM36 °FPartly cloudy.1 mph93%30.12 "HgN/A
8:50 PM36 °FPartly cloudy.2 mph93%30.12 "HgN/A
8:20 PM37 °FPartly cloudy.2 mph87%30.12 "HgN/A
7:50 PM37 °FLight rain. Partly cloudy.5 mph87%30.09 "HgN/A
7:20 PM37 °FSprinkles. Partly cloudy.9 mph87%30.09 "HgN/A
6:50 PM37 °FPassing clouds.8 mph87%30.09 "HgN/A
6:20 PM37 °FPassing clouds.7 mph87%30.07 "HgN/A
5:50 PM37 °FLight rain. Broken clouds.7 mph87%30.07 "HgN/A
5:20 PM39 °FLight rain. Broken clouds.8 mph81%30.04 "HgN/A
4:50 PM39 °FLight rain. Broken clouds.12 mph81%30.01 "HgN/A
4:20 PM39 °FLight rain. Broken clouds.8 mph81%30.01 "HgN/A
3:50 PM39 °FLight rain. Broken clouds.8 mph81%29.98 "HgN/A
3:20 PM39 °FDrizzle. Broken clouds.9 mph81%29.98 "HgN/A
Weather by CustomWeather, © 2015

See weather overviewHow to use our weather pages